User: anonymous   Login
Location: Unspecified
(0.0000°N, 0.0000°E)
Time: 23:59:28
(UTC+00:00)
Language:

DEMETER - Orbit

View from above orbital plane
View from above orbital plane
View from above satellite
View from above satellite

Ground track
Ground track

The orbit data is extracted from the following two-line orbital elements,

1 28368U 04025C   18352.86683085  .00000102  00000-0  22584-4 0  9999
2 28368  97.7624 332.2459 0000620  62.1958 297.9314 14.74427222776618
Epoch (UTC): 18 December 2018 20:48:14
Eccentricity: 0.0000620
inclination: 97.7624°
perigee height: 646 km
apogee height: 647 km
right ascension of ascending node: 332.2459°
argument of perigee: 62.1958°
revolutions per day: 14.74427222
mean anomaly at epoch: 297.9314°
orbit number at epoch: 77661

The dashed part of the orbit path shows where the satellite is in the earth's shadow,  

DLR